This is the latest recevied weather packets stored in our database for station/object LKKU. If no packets are shown the sender has not sent any weather packets the latest 10 day(s).
| Time | Temp. | Humidity | Pressure | Rain* | Wind** | Luminosity | Snow |
|---|---|---|---|---|---|---|---|
| 1777971785 | 22.78° C | 35% | 1009 hPa | - | - | - | - |
| 1777970225 | 22.22° C | 35% | 1009 hPa | - | - | - | - |
| 1777968187 | 20° C | 40% | 1009 hPa | - | - | - | - |
| 1777964595 | 20° C | 40% | 1010 hPa | - | - | - | - |
| 1777960986 | 17.78° C | 42% | 1010 hPa | - | - | - | - |
| 1777959424 | 17.22° C | 48% | 1010 hPa | - | - | - | - |
| 1777906986 | 26.11° C | 22% | 1013 hPa | - | - | - | - |
| 1777903385 | 26.11° C | 24% | 1013 hPa | - | - | - | - |
| 1777896186 | 23.89° C | 31% | 1014 hPa | - | - | - | - |
| 1777892585 | 22.78° C | 33% | 1015 hPa | - | - | - | - |
| 1777888960 | 22.78° C | 33% | 1016 hPa | - | - | - | - |
| 1777885386 | 21.11° C | 35% | 1016 hPa | - | - | - | - |
| 1777881786 | 20° C | 37% | 1016 hPa | - | - | - | - |
| 1777878194 | 17.78° C | 39% | 1016 hPa | - | - | - | - |
| 1777876023 | 17.78° C | 39% | 1016 hPa | - | - | - | - |
| 1777874585 | 17.22° C | 42% | 1016 hPa | - | - | - | - |
| 1777870986 | 15° C | 47% | 1016 hPa | - | - | - | - |
| 1777867386 | 12.78° C | 54% | 1016 hPa | - | - | - | - |
| 1777816985 | 23.89° C | 29% | 1017 hPa | - | - | - | - |
| 1777813384 | 23.89° C | 27% | 1018 hPa | - | - | - | - |
| 1777809784 | 23.89° C | 27% | 1018 hPa | - | - | - | - |
| 1777806185 | 22.78° C | 27% | 1019 hPa | - | - | - | - |
| 1777802584 | 22.22° C | 30% | 1019 hPa | - | - | - | - |
| 1777798985 | 21.11° C | 28% | 1020 hPa | - | - | - | - |
| 1777795386 | 20° C | 32% | 1020 hPa | - | - | - | - |
* Rain since midnight (hover to see other rain measurements)
** Current wind speed in m/s (hover to see current wind gust speed)